Regional Weather Roundup
Issued by NWS

Home | Current Version | Previous Version | Text Only | Print | Product List | Glossary On
Versions: 1 2 3 4 5 6 7 8 9 10 11 12 13 14 15 16 17 18 19 20 21 22 23 24 25 26 27 28 29 30 31 32 33 34 35 36 37 38 39 40 41 42 43 44 45 46 47 48 49 50
000
ASUS43 KLOT 312310
RWRIL

ILLINOIS REGIONAL WEATHER ROUNDUP
NATIONAL WEATHER SERVICE CHICAGO/ROMEOVILLE IL
500 PM CST SAT JAN 31 2015

NOTE: "FAIR" INDICATES FEW OR NO CLOUDS BELOW 12,000 FEET WITH NO
SIGNIFICANT WEATHER AND/OR OBSTRUCTIONS TO VISIBILITY.

* THESE STATIONS ARE NOT UNDER NWS QUALITY CONTROL. THEY ALSO MAY NOT
  REPORT WEATHER SUCH AS PRECIPITATION OR FOG.

ILZ001-002-007-009-015-016-024-010000-
NORTHWEST ILLINOIS

CITY           SKY/WX    TMP DP  RH WIND       PRES   REMARKS
MOLINE         LGT RAIN  35  33  92 S5        30.15F FOG     WCI  31
STERLING*        N/A    N/A N/A N/A MISG        N/A
SAVANNA*       DRIZZLE   36  33  89 SW3       30.16R
$$

ILZ003-004-008-010-011-017-018-010000-
NORTH CENTRAL ILLINOIS

CITY           SKY/WX    TMP DP  RH WIND       PRES   REMARKS
ROCKFORD       CLOUDY    35  26  69 CALM      30.16F
FREEPORT*      CLOUDY    33  26  76 NE6       30.16S WCI  27
ROCHELLE*      CLOUDY    33  31  92 CALM      30.16S
DE KALB*       CLOUDY    33  28  83 CALM      30.16S
PERU*          DRZL/FOG  36  35  96 SW8       30.17S VSB 1   WCI  29
$$

ILZ005-006-012>014-019>023-010000-
NORTHEAST ILLINOIS

CITY           SKY/WX    TMP DP  RH WIND       PRES   REMARKS
CHICAGO-OHARE  CLOUDY    35  26  69 W6        30.16S WCI  30
CHICAGO-MIDWAY CLOUDY    37  28  70 W7        30.18R WCI  32
AURORA         CLOUDY    36  29  75 SW5       30.17R WCI  32
LANSING*       CLOUDY    36  30  79 SW6       30.18S WCI  31
JOLIET*        CLOUDY    35  32  90 W5        30.18S FOG     WCI  31
WAUKEGAN       CLOUDY    32  23  69 E3        30.16S
DUPAGE AIRPORT CLOUDY    35  28  75 W3        30.15F
KANKAKEE*      CLOUDY    35  33  94 SW5       30.20S FOG     WCI  31
WHEELING       CLOUDY    36  24  62 W3        30.18F
MORRIS*        DRIZZLE   35  34  96 W5        30.17S WCI  31
ROMEOVILLE*    CLOUDY    35  30  80 W7        30.17S WCI  29
NORTHERLY ISL    N/A     35  25  67 NE6         N/A  WCI  30
$$

LMZ740>746-010000-
SOUTHERN LAKE MICHIGAN

STATION/POSITION SKY/WX   TEMP    WIND        PRES    VSBY  WAVE
                          AIR SEA DIR/SP/G                  HT/PER
                          (F)     (DEG/KT/KT) (MB)    (MI)  (FT/S)
WAUKEGAN HARBOR            32      70/  2/  4   N/A
HARRISON CRIB              35     340/  6/  7   N/A
BURNHAM HARBOR             34      90/  5/  8   N/A
CALUMET HARBOR             37     250/  2/  4   N/A
MICHIGAN CITY              35     250/  4/  4   N/A
$$

ILZ025>027-034>036-040-047-049-050-058-095>099-010000-
WEST-CENTRAL ILLINOIS

CITY           SKY/WX    TMP DP  RH WIND       PRES   REMARKS
QUINCY         CLOUDY    35  33  92 S6        30.16F FOG     WCI  30
GALESBURG*     LGT RAIN  35  35  99 S3        30.16F
MACOMB*        LGT RAIN  34  34  99 CALM      30.19F
JACKSONVILLE*  CLOUDY    36  34  91 SE6       30.19S WCI  31
PITTSFIELD*    CLOUDY    36  33  89 SE6       30.18F WCI  31
$$

ILZ028>032-037-038-041>044-048-051>054-059>061-010000-
CENTRAL ILLINOIS

CITY           SKY/WX    TMP DP  RH WIND       PRES   REMARKS
PONTIAC        DRIZZLE   37  34  90 SW3       30.20R
BLOOMINGTON    LGT RAIN  34  32  92 SW12      30.21R FOG     WCI  25
DECATUR        MIX PCPN  36  33  89 S8        30.23R FOG     WCI  30
PEORIA         LGT RAIN  35  32  88 SW7       30.20S FOG     WCI  29
LACON*         LGT RAIN  35  33  94 SW7       30.18S WCI  29
LINCOLN*       LGT RAIN  36  33  89 CALM      30.22F
SPRINGFIELD    LGT RAIN  36  33  89 E3        30.20F FOG
TAYLORVILLE    CLOUDY    34  32  93 SE6       30.20F WCI  29
$$

ILZ033-039-045-046-055>057-062-063-010000-
EAST-CENTRAL ILLINOIS

CITY           SKY/WX    TMP DP  RH WIND       PRES   REMARKS
CHAMPAIGN      LGT RAIN  34  30  85 SW6       30.22R WCI  29
DANVILLE*      LGT SNOW  35  29  80 SW8       30.20R WCI  28
RANTOUL*       LGT RAIN  35  33  90 SW8       30.21S WCI  29
MATTOON        LGT RAIN  35  30  82 S5        30.24R WCI  31
PARIS*         DRIZZLE   34  32  91 S3        30.24S
$$

ILZ079-100>102-010000-
SOUTHWEST ILLINOIS

CITY           SKY/WX    TMP DP  RH WIND       PRES   REMARKS
ALTON          CLOUDY    41  28  60 E5        30.21F
BELLEVILLE     CLOUDY    41  29  62 SE7       30.21F
CAHOKIA*       LGT RAIN  42  30  62 SE7       30.20F
SPARTA*        CLOUDY    40  26  57 S8        30.24S
$$

ILZ064>066-069>071-074>076-080>082-084>086-088>090-092>094-010000-
SOUTH-CENTRAL ILLINOIS

CITY           SKY/WX    TMP DP  RH WIND       PRES   REMARKS
CARBONDALE     CLOUDY    41  25  53 SE7       30.24F
CAIRO*         CLOUDY    44  28  53 E7        30.24F
EFFINGHAM*     RAIN      36  30  79 N6        30.23F WCI  31
MARION         CLOUDY    41  27  56 S9        30.26F
MT. VERNON     CLOUDY    41  27  56 S7        30.26S
CENTRALIA*     CLOUDY    39  29  68 S3        30.24F
SALEM*         CLOUDY    41  29  63 S5        30.24R
METROPOLIS*    CLOUDY    43  26  51 E3        30.24F
$$

ILZ067-068-072-073-078-083-087-091-010000-
SOUTHEAST ILLINOIS

CITY           SKY/WX    TMP DP  RH WIND       PRES   REMARKS
LAWRENCEVILLE  CLOUDY    39  30  70 S7        30.27S WCI  34
FLORA*         CLOUDY    37  31  78 S3        30.25F
FAIRFIELD*     CLOUDY    40  30  67 S5        30.25R
HARRISBURG*    CLOUDY    41  31  66 CALM      30.28R
ROBINSON*      CLOUDY    38  29  70 S3        30.27R
CARMI*         CLOUDY    42  32  69 SE7       30.26S
$$

ABBREVIATIONS USED IN REMARKS
   TC - TEMPERATURE IN CELSIUS
  WCI - WIND CHILL INDEX
   HX - HEAT INDEX
  VSB - VISIBILITY
$$



USA.gov is the U.S. government's official web portal to all federal, state and local government web resources and services.